Regional Weather Roundup
Issued by NWS Upton, NY

Current Version | Previous Version | Graphics & Text | Print | Product List | Glossary Off
Versions: 1 2 3 4 5 6 7 8 9 10 11 12 13 14 15 16 17 18 19 20 21 22 23 24 25 26 27 28 29 30 31 32 33 34 35 36 37 38 39 40 41 42 43 44 45 46 47 48 49 50

000
ASUS41 KOKX 240908
RWROKX

REGIONAL WEATHER ROUNDUP
NATIONAL WEATHER SERVICE NEW YORK NY
400 AM EST FRI NOV 24 2017

NOTE: "FAIR" INDICATES FEW OR NO CLOUDS BELOW 12,000 FEET WITH NO
SIGNIFICANT WEATHER AND/OR OBSTRUCTIONS TO VISIBILITY.

NYZ071-072-176-178-NJZ106-104-241000-
NEW YORK CITY METRO AREA

CITY           SKY/WX    TMP DP  RH WIND       PRES   REMARKS
Central Park   CLEAR     36  21  54 W3        30.05F
Bronx Bot Gard   N/A     36  21  55 W2        30.05R
Bronx Lehman C   N/A     36  32  87 W2          N/A
LaGuardia APRT CLEAR     39  23  52 NW9       30.03F WCI  33
Queens College   N/A     37  32  81 W3          N/A
Kennedy INTL   CLEAR     36  24  62 W7        30.05S WCI  30
Breezy Point     N/A     36 N/A N/A W6          N/A  WCI  31
Brooklyn Coll    N/A     37  32  81 W5          N/A  WCI  34
Staten Island    N/A     32  32 100 W1          N/A
Newark/Liberty CLEAR     32  21  64 CALM      30.05S
Teterboro      CLEAR     29  22  75 CALM      30.03S
$$

NYZ177-179-078>081-241000-
LONG ISLAND NEW YORK

CITY           SKY/WX    TMP DP  RH WIND       PRES   REMARKS
Jones Beach      N/A     37 N/A N/A W7          N/A  WCI  32
Wantagh          N/A     32  32 100 W3          N/A
Matinecock PT    N/A     39 N/A N/A W12         N/A  WCI  32
Farmingdale    CLEAR     29  24  82 CALM      30.03F
MacArthur/ISP  CLEAR     30  23  75 CALM      30.02S
Shirley        CLEAR     30  24  78 CALM      30.03S
Mt Sinai Harb    N/A    N/A N/A N/A W2          N/A
Westhampton    CLEAR     20  17  88 CALM      30.04R
East Hampton   FAIR      25  23  93 CALM      30.02R
Southold         N/A     37  32  81 NW6         N/A  WCI  33
Montauk          N/A     41  32  70 VRB3      30.02S
$$

NYZ052-065-067-241000-
HUDSON VALLEY

CITY           SKY/WX    TMP DP  RH WIND       PRES   REMARKS
White Plains   CLEAR     31  22  69 W6        30.00F WCI  25
Larchmont Harb   N/A     34 N/A N/A W7          N/A  WCI  28
Croton On Huds   N/A    N/A N/A N/A E2          N/A
Somers           N/A     30  32 100 CALM        N/A
Brewster         N/A     27  32 100 CALM        N/A
Newburgh       CLEAR     28  23  80 W8        30.02S WCI  20
Montgomery     PTCLDY    27  21  78 S5        30.00S WCI  22
Suffern          N/A     32  32 100 W3          N/A
Poughkeepsie   PTCLDY    26  21  81 SE3       30.01S
Albany         CLOUDY    32  20  61 S7        29.98F WCI  26
$$

NJZ001-105-106-008-010-013-015-019>022-104-241000-
NEW JERSEY

CITY           SKY/WX    TMP DP  RH WIND       PRES   REMARKS
Newark/Liberty CLEAR     32  21  64 CALM      30.05S
Teterboro      CLEAR     29  22  75 CALM      30.03S
Caldwell       CLEAR     27  21  78 CALM      30.04F
Somerville     CLEAR     22  20  92 CALM      30.03F
Linden         FAIR      31  20  65 CALM      30.05R
Perth Amboy      N/A    N/A N/A N/A W5          N/A
Sussex         PTCLDY    23  21  92 W3        30.02S
Andover          N/A     23  21  92 CALM      30.03S
Trenton        CLEAR     28  21  75 CALM      30.04S
Millville      CLEAR     22  21  96 W3        30.07S
Atlantic City  CLOUDY    26  23  88 CALM      30.06F
Wrightstown    CLEAR     25  21  87 CALM      30.03R
Toms River     CLOUDY    21  19  92 CALM      30.07R
Belmar         CLEAR     28  21  75 SW6       30.05S WCI  22
$$

PAZ047>061-062-071-241000-
EASTERN PENNSYLVANIA

CITY           SKY/WX    TMP DP  RH WIND       PRES   REMARKS
Philadelphia   CLEAR     31  24  75 CALM      30.07S
Allentown      CLOUDY    25  20  81 CALM      30.04S
Scranton       CLOUDY    32  23  69 CALM      30.00F
$$

CTZ002-004>006-009-010-012-RIZ004-006-007-MAZ004-011-015-241000-
SOUTHERN NEW ENGLAND
 IN CT

CITY           SKY/WX    TMP DP  RH WIND       PRES   REMARKS
Bradley INTL   MOCLDY    26  21  81 CALM      30.00F
Hartford       CLOUDY    28  24  85 CALM      30.02R
Danbury        CLEAR     23  20  88 CALM      30.02S
Wtrbury/Oxford CLEAR     26  20  77 NW3       29.99S
Norwalk Harbor   N/A     34 N/A N/A W9          N/A  WCI  26
Bridgeport     CLEAR     29  21  72 N3        30.02F
Meriden        CLEAR     24  21  88 CALM      30.02S
New Haven      CLEAR     27  21  78 CALM      30.02S
Chester        FAIR      30  18  59 CALM      29.99F
Groton         CLEAR     29  25  85 CALM      30.01S
Wilimantic     CLEAR     25  22  88 CALM      30.01F

 IN RI

CITY           SKY/WX    TMP DP  RH WIND       PRES   REMARKS
Providence     CLEAR     29  24  82 W6        30.01F WCI  23
Block Island   CLEAR     39  27  62 NW5       30.01S
Westerly       CLEAR     27  25  92 CALM      30.02R
 IN MA

CITY           SKY/WX    TMP DP  RH WIND       PRES   REMARKS
Boston         CLEAR     32  23  69 SW5       29.99S WCI  27
Worcester      CLEAR     30  18  60 W16       29.93F WCI  19
Westfield      CLEAR     26  21  81 CALM      29.99S
Provincetown   CLEAR     36  24  62 W8        29.99S WCI  30
Nantucket      CLEAR     34  25  69 W7        30.00S WCI  28
$$

ANZ330-335-338-340-345-350-353-355-241000-
COASTAL MARINE OBSERVATIONS


STATION/POSITION TIME  SKY/WX   TEMP    WIND        PRES    VSBY  WAVE
                                AIR SEA DIR/SP/G                  HT/PER
                 (UTC)          (F)     (DEG/KT/KT) (MB)    (MI)  (FT/S)
NY HARB ENTRANCE 0850            42 55  280/ 12/ 14 1016.6          3/10
20 S FIRE ISLAND 0750            44 56  300/ 10/ 14 1016.9          4/ 9
GREAT SOUTH BAY  0830            38 44  290/  8/ 10   N/A
HUDSON CANYON    0750            46 58  310/ 10/ 14 1016.7          4/10
KINGS POINT      0830            38 49  330/  4/  6 1017.8
EXECUTION ROCKS  0845            38     260/  8/ 10   N/A
WESTERN LI SOUND 0749            39     270/  8/ 12   N/A           1
CENTRAL LI SOUND 0815            40     310/ 10/ 14   N/A           1
ROBBINS REEF     0842            35     280/  6/  7 1017.7
$$


>>>>>>>>>>>>>>>>>>>>>>>>>>>> KEY <<<<<<<<<<<<<<<<<<<<<<<<<<<
>                                                          <
>     SKY/WX - Sky Condition/Present Weather               <
>     TMP    - Temperature in Fahrenheit                   <
>     DP     - Dew Point in Fahrenheit                     <
>     RH     - Relative Humidity in Percent                <
>     WIND   - Direction (from) and Speed in MPH           <
>     PRES   - Mean Sea Level Pressure (inches of Hg)      <
>     WCI    - Wind Chill Index                            <
>     VSB    - VISIBILITY IN MILES                         <
>     HX     - HEAT INDEX                                  <
>     TC     - TEMPERATURE IN CELSIUS                      <
>     VRB    - VARIABLE WIND DIRECTION                     <
>                                                          <
>>>>>>>>>>>>>>>>>>>>>>>>>>>> KEY <<<<<<<<<<<<<<<<<<<<<<<<<<<



USA.gov is the U.S. government's official web portal to all federal, state and local government web resources and services.